Time,B instrument,Bx,By,Bz,sigma B,Ion instrument,Status,Tp_par,Tp_perp,carrot,r_sun,clat,clong,earth_he_angle,n_p,vp_x,vp_y,vp_z,vth_p_par,vth_p_perp
1980-09-26 01:29:27,-1,nan,nan,nan,nan,1,3,nan,nan,1699,0.93433732,-2.4842739,84.632965,92.910309,nan,338.27,12.4158,0.463851,nan,nan
1980-09-26 01:34:51,-1,nan,nan,nan,nan,1,3,nan,nan,1699,0.93432325,-2.4845915,84.585388,92.909607,nan,333.697,6.85693,-1.54029,nan,nan
1980-09-26 01:40:15,1,3.05,-2.8,2.675,0.198431,1,1,32899.6,33511.2,1699,0.93430632,-2.4849739,84.533752,92.908752,5.5984,335.687,11.3372,-2.96136,23.3052,23.5208
1980-09-26 01:45:40,1,2.1,-2.8,4.2,4.44089e-16,1,1,46166.7,27757.3,1699,0.9342922,-2.4852915,84.482269,92.908035,5.40364,337.726,6.69907,-14.6847,27.6072,21.4065
1980-09-26 01:51:04,1,3.03333,-2.26667,3.16667,0.294392,1,1,38076.2,33358.7,1699,0.93427527,-2.485673,84.430634,92.907181,4.7718,334.604,9.08115,-1.34093,25.0717,23.4673
1980-09-26 01:56:28,1,1.8,-3.53333,1.66667,0.253859,1,1,48198.9,29256.2,1699,0.93426114,-2.4859915,84.383026,92.906464,5.05999,344.204,10.0407,5.18213,28.2083,21.9769
1980-09-26 02:01:53,1,2.83333,-2.5,3.53333,0.380058,1,1,28176.0,30080.2,1699,0.93424702,-2.4863091,84.331543,92.905746,5.1662,335.764,11.4217,-9.33027,21.5674,22.2843
1980-09-26 02:07:17,1,2.6,-2.9,3.26667,0.249444,1,1,53462.4,25937.6,1699,0.93423009,-2.4866905,84.279907,92.904892,5.15993,337.041,5.50469,-8.63415,29.7086,20.693
1980-09-26 02:12:41,1,1.96667,-3.2,3.93333,0.352767,1,1,35749.8,22981.5,1699,0.9342159,-2.487009,84.2323,92.904175,5.20583,338.91,10.9874,-16.1346,24.2938,19.4781
1980-09-26 02:18:05,1,2.2,-3.8,1.66667,0.188562,1,1,43508.3,25945.3,1699,0.93419898,-2.4873905,84.180664,92.90332,4.80325,338.113,11.4739,-0.233659,26.8006,20.696
1980-09-26 02:23:29,1,1.9,-3.83333,2.73333,0.253859,1,1,24169.3,22302.6,1699,0.93418485,-2.487709,84.129181,92.902618,4.85806,342.29,16.4612,-9.24998,19.9752,19.1883
1980-09-26 02:28:53,1,1.86667,-3.53333,3.26667,0.305505,1,1,43125.4,25011.9,1699,0.93417066,-2.4880266,84.081604,92.901901,4.90029,333.549,9.73109,-1.11818,26.6824,20.3204
1980-09-26 02:34:17,1,0.0666667,-3.1,5.03333,0.352767,1,1,35676.8,26094.8,1699,0.93415374,-2.4884081,84.029968,92.901047,5.09007,347.066,9.7281,-20.8803,24.2689,20.7556
1980-09-26 02:39:41,1,-0.55,-3.95,2.85,0.278388,1,1,48154.8,22644.3,1699,0.93413961,-2.4887266,83.978455,92.90033,5.36031,351.737,9.19503,-2.28186,28.1954,19.3347
1980-09-26 02:45:05,1,-0.7,-3.9,3.525,0.34187,1,1,41467.2,29435.4,1699,0.93412262,-2.4891081,83.930725,92.899475,5.18466,353.337,14.631,-11.8166,26.1644,22.0441
1980-09-26 02:50:29,1,-0.833333,-3.43333,3.46667,0.305505,1,1,58608.6,24821.3,1699,0.9341085,-2.4894266,83.879242,92.898758,5.34091,351.575,9.66904,-13.8482,31.1056,20.2428
1980-09-26 02:55:53,1,-1.06667,-3.53333,3.33333,0.270801,1,1,36081.0,26600.0,1699,0.93409437,-2.4897442,83.827728,92.898041,5.2288,355.943,13.3054,-13.6332,24.406,20.9555
1980-09-26 03:01:17,1,-0.366667,-4.33333,2.2,0.333333,1,1,48883.8,25214.5,1699,0.93407738,-2.4901257,83.779999,92.897186,5.61002,351.028,13.9139,-3.78541,28.408,20.4025
1980-09-26 03:06:41,1,1.73333,-3.96667,1.4,0.380058,1,1,25232.3,23484.0,1699,0.9340632,-2.4904442,83.728516,92.896484,5.01709,343.547,18.5335,2.48848,20.4097,19.6899
1980-09-26 03:12:05,1,0.1,-3.9,0.233333,0.188562,1,1,40043.2,23186.0,1699,0.93404621,-2.4908257,83.67688,92.89563,5.06769,350.029,12.6025,6.6019,25.7112,19.5646
1980-09-26 03:17:29,1,1.6,-2.23333,4.96667,0.790218,1,1,25513.7,25274.8,1699,0.93403208,-2.4911442,83.629303,92.894913,5.63294,342.398,-14.9712,-17.1519,20.5232,20.4269
1980-09-26 03:22:53,1,2.33333,-3.13333,4.2,0.210819,1,1,39897.0,27528.1,1699,0.9340179,-2.4914618,83.57782,92.894211,5.32153,335.859,8.29765,-13.6271,25.6642,21.318
1980-09-26 03:28:17,1,-0.833333,-1.83333,6.0,0.194365,1,1,24805.5,16720.7,1699,0.93400091,-2.4918442,83.526184,92.893356,5.40655,348.011,8.59365,-22.3929,20.2363,16.6144
1980-09-26 03:33:41,1,-0.766667,-1.66667,5.73333,0.282843,1,1,33668.8,17700.6,1699,0.93398672,-2.4921618,83.478577,92.892639,6.06523,354.095,0.560643,-21.0241,23.5761,17.0943
1980-09-26 03:39:05,1,0.533333,-2.83333,5.43333,0.316228,1,1,27744.1,15529.5,1699,0.93396974,-2.4925432,83.426941,92.891785,5.05307,339.046,7.10584,-23.7905,21.4015,16.0117
1980-09-26 03:44:29,1,0.133333,-2.3,5.26667,0.827312,1,1,45357.9,21849.7,1699,0.93395561,-2.4928617,83.375458,92.891083,5.27088,344.501,7.11383,-8.10153,27.3643,18.9924
1980-09-26 03:49:53,1,0.533333,-3.96667,3.7,0.194365,1,1,23216.4,20628.0,1699,0.93394142,-2.4931803,83.327881,92.890366,5.72527,345.028,13.6685,-13.2047,19.5774,18.4538
1980-09-26 03:55:17,1,0.633333,-0.866667,6.46667,0.60553,1,1,18766.5,7461.02,1699,0.93392444,-2.4935617,83.276245,92.889511,11.851,332.148,-3.93582,-21.563,17.6015,11.0983
1980-09-26 04:00:41,1,1.1,-1.96667,6.1,0.359011,1,1,18654.5,7576.42,1699,0.93391031,-2.4938803,83.224762,92.888809,11.5646,344.185,10.39,-23.0026,17.5489,11.1838
1980-09-26 04:06:05,1,1.43333,-3.56667,3.93333,0.424264,1,1,41829.4,27818.5,1699,0.93389326,-2.4942617,83.177032,92.887955,6.16043,339.815,8.73778,-15.3144,26.2784,21.4301
1980-09-26 04:26:00,1,2.36667,-3.46667,4.08333,0.35,1,1,38783.9,24638.5,1699,0.93383652,-2.4955339,82.99057,92.885101,5.79523,341.355,7.57113,-16.5908,25.3037,20.1681
1980-09-26 04:26:19,1,2.37143,-3.41429,3.91429,0.23035,1,1,31877.1,29687.0,1699,0.93445659,-2.7770283,82.791077,92.689514,5.60574,336.245,7.0815,-11.3907,22.9402,22.1382
1980-09-26 04:27:21,1,2.2,-3.54286,3.68571,0.308386,1,1,24917.9,23973.8,1699,0.93383372,-2.4955978,82.978729,92.884964,5.77213,339.671,12.8738,-12.7416,20.2821,19.8942
1980-09-26 04:27:40,1,2.05,-3.51667,3.86667,0.269774,1,1,25170.3,22249.4,1699,0.93383372,-2.4955978,82.974823,92.884964,5.72554,337.705,12.0128,-13.3765,20.3846,19.1654
1980-09-26 04:29:01,1,1.5,-3.66667,4.26667,0.307318,1,1,38969.6,25639.9,1699,0.93382806,-2.4957247,82.962799,92.884674,5.58344,342.879,9.61464,-16.2698,25.3642,20.5739
1980-09-26 04:30:22,1,1.35,-4.05,3.6,0.212132,1,1,24237.4,23843.8,1699,0.93382519,-2.4957886,82.950958,92.884537,5.46487,341.575,13.8972,-12.4509,20.0033,19.8402
1980-09-26 05:42:48,-1,nan,nan,nan,nan,1,3,nan,nan,1699,0.93362075,-2.50037,82.276672,92.874313,nan,334.506,16.0127,-2.86869,nan,nan
1980-09-26 05:44:09,1,2.06667,-3.3,3.73333,0.409607,1,1,42990.8,26079.9,1699,0.93361503,-2.5004978,82.260742,92.874023,5.17203,337.043,10.362,-10.4365,26.6407,20.7496
1980-09-26 05:45:30,1,3.6,-2.6,1.56667,0.280872,1,1,25347.4,25649.2,1699,0.93361223,-2.5005617,82.248901,92.873886,5.31214,326.599,11.6172,6.08062,20.4562,20.5776
1980-09-26 05:46:51,1,3.53333,-2.61667,1.63333,0.275379,1,1,25037.7,18345.2,1699,0.93360937,-2.5006247,82.23703,92.873749,4.95885,328.717,6.2789,8.41849,20.3308,17.4028
1980-09-26 05:48:13,1,3.66667,-2.45,1.5,0.291071,1,1,33281.2,28560.0,1699,0.9336037,-2.5007524,82.225037,92.873459,5.04921,326.727,9.89219,8.02945,23.44,21.7139
1980-09-26 05:49:34,1,3.58333,-2.6,1.7,0.296742,1,1,22882.1,20179.0,1699,0.93360084,-2.5008154,82.213165,92.873322,4.80436,326.42,7.68115,8.85379,19.4359,18.2519
1980-09-26 05:50:55,1,3.36667,-2.63333,1.5,0.233333,1,1,23572.7,26601.8,1699,0.93359798,-2.5008793,82.201324,92.873184,5.22813,328.38,14.5531,4.14932,19.7271,20.9563
1980-09-26 05:52:16,1,3.9,-2.1,1.36667,0.292499,1,1,22946.1,19899.8,1699,0.93359232,-2.5010071,82.185394,92.872894,5.02528,324.762,5.83593,8.44045,19.4631,18.1252
1980-09-26 05:53:37,1,3.91667,-2.23333,1.83333,0.32532,1,1,22248.0,21633.4,1699,0.93358946,-2.50107,82.173553,92.872757,4.66842,323.297,11.2732,3.13623,19.1648,18.8982
1980-09-26 05:54:58,1,3.76667,-2.4,1.76667,0.2848,1,1,22804.2,19969.3,1699,0.93358666,-2.5011339,82.161682,92.872604,4.85812,325.147,7.6911,5.67851,19.4029,18.1568
1980-09-26 05:56:19,1,3.7,-2.63333,1.9,0.149071,1,1,19592.6,23410.4,1699,0.93358094,-2.5012617,82.149689,92.87233,4.96064,324.709,12.7638,4.29579,17.9847,19.659
1980-09-26 05:57:40,1,4.06667,-1.96667,2.23333,0.223607,1,1,22097.5,22694.3,1699,0.93357813,-2.5013247,82.137817,92.872177,5.00546,322.926,5.87182,3.27827,19.0998,19.356
1980-09-26 05:59:01,1,3.38333,-2.61667,1.68333,0.31225,1,1,24596.8,24671.5,1699,0.93357241,-2.5014524,82.125824,92.871902,4.95808,325.22,13.2556,4.88419,20.151,20.1816
1980-09-26 06:00:22,1,3.61667,-2.66667,1.63333,0.25658,1,1,23173.9,16992.3,1699,0.93356961,-2.5015163,82.110046,92.871765,5.10855,328.014,5.93849,8.25612,19.5595,16.7488
1980-09-26 06:01:43,1,3.96667,-2.46667,1.5,0.233333,1,1,20911.7,24559.5,1699,0.93356675,-2.5015793,82.098175,92.871613,5.23343,324.832,10.9971,6.59998,18.5803,20.1357
1980-09-26 06:03:04,1,3.53333,-2.83333,1.83333,0.244949,1,1,26913.2,22038.9,1699,0.93356103,-2.5017071,82.086182,92.871338,4.90179,327.916,6.64658,7.09055,21.0785,19.0745
1980-09-26 06:04:25,1,3.43333,-2.95,2.1,0.33375,1,1,17530.2,20689.4,1699,0.93355823,-2.501771,82.07431,92.871185,4.87522,323.59,13.0969,2.83574,17.0118,18.4813
1980-09-26 06:05:46,1,3.96667,-2.3,1.56667,0.343188,1,1,22156.8,21139.8,1699,0.93355536,-2.5018339,82.062469,92.871048,5.01965,326.116,5.71377,8.37365,19.1254,18.6814
1980-09-26 06:07:07,1,3.91667,-2.41667,2.3,0.229734,1,1,17674.0,20630.3,1699,0.93354964,-2.5019617,82.050476,92.870773,5.00234,322.199,10.6915,3.29905,17.0815,18.4549
1980-09-26 06:08:28,1,3.83333,-2.15,2.7,0.254406,1,1,23475.7,17561.4,1699,0.93354684,-2.5020256,82.034698,92.870621,5.17044,324.014,3.73823,-1.42094,19.6864,17.027
1980-09-26 06:09:48,1,3.35,-2.76667,2.36667,0.252212,1,1,21937.4,23712.7,1699,0.93354398,-2.5020885,82.022827,92.870483,5.05242,325.051,13.1146,1.17051,19.0305,19.7856
1980-09-26 06:14:18,1,3.08333,-2.75,3.76667,0.512619,1,1,32143.8,32705.3,1699,0.93352973,-2.5024071,81.983063,92.869781,4.97315,324.825,7.8581,-9.74878,23.036,23.2363
1980-09-26 06:15:39,1,3.05714,-2.94286,2.98571,0.221313,1,1,24505.8,25722.3,1699,0.93352687,-2.502471,81.971191,92.869629,4.60907,330.979,18.0859,-1.15261,20.1137,20.6069
1980-09-26 06:16:34,1,3.1,-3.05,3.4,0.25,1,1,26540.4,22913.7,1699,0.93352407,-2.5025349,81.959351,92.869492,4.37641,325.795,9.39746,-5.07992,20.932,19.4494
1980-09-26 06:17:55,1,3.13333,-2.83333,3.36667,0.486484,1,1,31142.6,32571.8,1699,0.93352121,-2.5025978,81.947479,92.869354,5.04008,327.937,12.744,-5.60213,22.6744,23.1888
1980-09-26 06:19:16,1,3.56667,-2.55,2.96667,0.316667,1,1,26137.6,24281.1,1699,0.93351549,-2.5027256,81.935486,92.869064,5.20728,323.713,6.32767,-5.15386,20.7726,20.0213
1980-09-26 06:20:37,1,3.24286,-2.81429,2.41429,0.26573,1,1,23631.1,28869.5,1699,0.93351269,-2.5027895,81.923615,92.868927,5.2421,325.13,11.7493,0.992349,19.7515,21.8312
1980-09-26 06:21:58,1,3.95714,-2.28571,2.24286,0.307724,1,1,27065.6,19866.4,1699,0.93350983,-2.5028524,81.911774,92.86879,4.81943,323.506,3.71716,0.748055,21.1382,18.1099
1980-09-26 06:23:19,1,4.16667,-1.85,2.36667,0.294863,1,1,22408.5,25774.2,1699,0.9335041,-2.5029802,81.895844,92.8685,4.74713,319.273,3.36099,-1.81314,19.2338,20.6277
1980-09-26 06:24:40,1,4.0,-2.33333,2.76667,0.333333,1,1,27564.8,19242.4,1699,0.9335013,-2.5030441,81.884003,92.868362,5.1122,323.575,4.11481,-2.62983,21.3322,17.8233
1980-09-26 06:26:01,1,4.23333,-2.13333,1.93333,0.310913,1,1,19943.9,24786.3,1699,0.93349558,-2.503171,81.871979,92.868073,4.78039,320.547,9.00774,1.59725,18.1453,20.2285
1980-09-26 06:27:22,1,3.88333,-2.55,2.83333,0.275882,1,1,26493.0,16801.3,1699,0.93349272,-2.5032349,81.860138,92.867935,4.75815,326.181,6.03395,-4.13039,20.9133,16.6544
1980-09-26 06:28:43,1,4.08333,-2.48333,2.36667,0.273861,1,1,24548.4,26209.1,1699,0.93348992,-2.5032988,81.848267,92.867798,4.63354,322.237,9.10721,-0.978325,20.1312,20.801
1980-09-26 06:30:04,1,3.71667,-2.51667,1.3,0.330824,1,1,24229.0,21938.5,1699,0.9334842,-2.5034256,81.836273,92.867508,5.28402,326.087,4.88519,8.90957,19.9998,19.031
1980-09-26 06:31:25,1,3.86667,-2.36667,1.23333,0.33665,1,1,21121.3,23280.3,1699,0.93348134,-2.5034895,81.820496,92.867371,5.12345,323.524,9.67728,6.20165,18.6732,19.6043
1980-09-26 06:32:46,1,3.71667,-2.8,2.3,0.380424,1,1,26778.8,19356.2,1699,0.93347853,-2.5035534,81.808624,92.867218,4.65194,323.875,8.15465,-1.63089,21.0258,17.8759
1980-09-26 06:34:07,1,2.58333,-3.46667,1.21667,0.518009,1,1,22968.3,24713.6,1699,0.93347281,-2.5036802,81.796631,92.866943,5.49266,331.176,17.0857,4.20424,19.4725,20.1988
1980-09-26 06:35:29,1,3.42857,-2.88571,1.61429,0.442627,1,1,27449.7,21585.4,1699,0.93346995,-2.5037441,81.78479,92.866806,4.82696,325.232,8.19694,5.23898,21.2876,18.8772
1980-09-26 06:36:49,1,2.96667,-3.35,0.816667,0.243812,1,1,26640.4,25754.3,1699,0.93346715,-2.503808,81.772919,92.866653,5.15289,327.341,15.099,3.3539,20.9714,20.6197
1980-09-26 06:38:11,-1,nan,nan,nan,nan,1,3,nan,nan,1699,0.93346143,-2.5039349,81.760925,92.866379,nan,328.229,8.31277,10.3855,nan,nan
1980-09-26 06:39:31,-1,nan,nan,nan,nan,1,3,nan,nan,1699,0.93345857,-2.5039988,81.745148,92.866241,nan,327.133,12.8795,0.965946,nan,nan
1980-09-26 06:40:53,-1,nan,nan,nan,nan,1,3,nan,nan,1699,0.93345577,-2.5040627,81.733276,92.866089,nan,331.797,11.4608,6.31507,nan,nan
1980-09-26 06:42:13,-1,nan,nan,nan,nan,1,3,nan,nan,1699,0.93345004,-2.5041895,81.721283,92.865814,nan,334.181,16.0254,3.72289,nan,nan
1980-09-26 06:43:35,-1,nan,nan,nan,nan,1,3,nan,nan,1699,0.93344718,-2.5042534,81.709412,92.865662,nan,330.062,6.9038,10.5805,nan,nan
1980-09-26 06:44:55,-1,nan,nan,nan,nan,1,3,nan,nan,1699,0.93344438,-2.5043173,81.697571,92.865524,nan,334.193,17.0028,-0.11368,nan,nan
1980-09-26 06:46:17,-1,nan,nan,nan,nan,1,3,nan,nan,1699,0.93343866,-2.5044441,81.685577,92.86525,nan,324.02,7.42679,6.04373,nan,nan
1980-09-26 06:47:37,-1,nan,nan,nan,nan,1,3,nan,nan,1699,0.9334358,-2.504508,81.6698,92.865097,nan,336.084,17.0897,-3.67199,nan,nan
1980-09-26 06:48:59,1,2.28571,-3.51429,2.55714,0.842978,1,1,40024.8,27089.2,1699,0.933433,-2.5045719,81.657928,92.86496,4.91263,332.284,15.3951,-6.36153,25.7053,21.1474
1980-09-26 06:50:19,1,4.06667,-1.56667,0.633333,0.675771,1,1,19984.7,27733.9,1699,0.93342727,-2.5046988,81.645935,92.86467,4.61099,318.894,3.26166,10.6535,18.1638,21.3975
1980-09-26 06:51:41,-1,nan,nan,nan,nan,1,4,nan,nan,1699,0.93342441,-2.5047626,81.634064,92.864532,nan,nan,nan,nan,nan,nan
1980-09-26 06:53:01,1,2.04286,-3.72857,3.8,0.156492,1,1,25674.9,22184.1,1699,0.93341875,-2.5048895,81.62207,92.864258,5.08244,333.757,15.2761,-9.05159,20.5879,19.1372
1980-09-26 06:54:23,1,2.26667,-3.8,3.4,0.249444,1,1,30951.0,26068.1,1699,0.93341589,-2.5049534,81.610199,92.864105,5.05609,331.705,13.035,-7.82284,22.6045,20.745
1980-09-26 06:55:43,1,2.04286,-3.74286,3.34286,0.519812,1,1,26895.7,25491.6,1699,0.93341303,-2.5050173,81.594452,92.863968,5.19708,331.716,13.0043,-13.4522,21.0717,20.5143
1980-09-26 06:57:05,1,3.21667,-3.4,1.43333,0.351584,1,1,29576.1,19989.8,1699,0.93340737,-2.5051441,81.582428,92.863678,5.14643,327.648,7.92887,8.72171,22.0968,18.1661
1980-09-26 06:58:25,1,1.61667,-3.73333,3.03333,1.68399,1,1,26952.1,25158.4,1699,0.93340451,-2.505208,81.570587,92.863541,5.3685,330.568,16.1513,6.78257,21.0938,20.3798
1980-09-26 06:59:47,1,0.557143,-3.67143,4.72857,0.32639,1,1,39665.0,20219.9,1699,0.93340164,-2.5052719,81.558716,92.863403,4.92346,339.06,8.41069,-18.9623,25.5895,18.2704
1980-09-26 07:01:08,1,1.07143,-3.77143,4.1,0.397954,1,1,24253.9,21116.6,1699,0.93339598,-2.5053988,81.546722,92.863113,5.56574,341.449,14.1203,-15.2783,20.0101,18.6711
1980-09-26 07:02:29,1,0.65,-4.18333,2.95,0.75037,1,1,44367.8,26647.7,1699,0.93339312,-2.5054626,81.534851,92.862976,5.72858,336.511,12.4856,-6.43834,27.064,20.9743
1980-09-26 07:03:50,1,0.342857,-4.45714,1.87143,0.375798,1,1,18962.4,21048.7,1699,0.93339026,-2.5055265,81.519104,92.862839,5.51702,342.24,17.9084,0.269497,17.6931,18.6411
1980-09-26 07:05:11,1,0.816667,-4.51667,2.03333,0.460072,1,1,50518.6,20383.1,1699,0.93338454,-2.5056534,81.50708,92.862549,5.11543,344.778,16.6743,2.21473,28.8791,18.344
1980-09-26 07:06:32,1,1.01667,-4.41667,2.11667,0.31225,1,1,20956.8,20329.2,1699,0.93338174,-2.5057173,81.495239,92.862411,4.79956,341.382,18.1959,-0.5675,18.6003,18.3197
1980-09-26 07:07:53,1,0.771429,-4.24286,0.857143,0.657764,1,1,34127.6,26896.6,1699,0.93337888,-2.5057812,81.483368,92.862274,5.51499,337.502,11.3563,15.6544,23.7362,21.0721
1980-09-26 07:09:14,1,0.942857,-4.52857,2.1,0.84443,1,1,21235.0,21405.8,1699,0.93337315,-2.505908,81.471375,92.861984,5.74335,344.278,17.6535,-6.33319,18.7234,18.7985
1980-09-26 07:10:35,1,1.25714,-4.44286,1.65714,0.749422,1,1,38407.3,20351.9,1699,0.93337029,-2.5059719,81.459503,92.861847,4.83711,332.805,12.7354,1.14827,25.1805,18.3299
1980-09-26 07:11:56,1,1.08571,-4.24286,3.28571,0.276273,1,1,22680.7,20746.0,1699,0.93336743,-2.5060358,81.443726,92.861694,5.36984,338.867,17.7821,-8.83796,19.3502,18.5065
1980-09-26 07:13:17,1,2.55,-3.6,3.25,0.449073,1,1,32073.7,20407.3,1699,0.93336177,-2.5061626,81.431732,92.86142,5.08592,326.51,7.80331,-9.15316,23.0108,18.3548
1980-09-26 07:14:38,1,2.78571,-3.0,3.72857,0.643967,1,1,28452.8,28974.1,1699,0.93335891,-2.5062265,81.419891,92.861282,5.08138,326.526,7.14079,-14.5381,21.6731,21.8707
1980-09-26 07:15:59,1,-1.4,-4.48571,1.24286,0.558789,1,1,46302.1,19374.3,1699,0.93335605,-2.5062904,81.40802,92.86113,4.99591,355.412,14.8096,1.50257,27.6477,17.8843
1980-09-26 07:17:20,1,-0.614286,-4.55714,2.42857,0.29277,1,1,29912.4,9589.7,1699,0.93335032,-2.5064173,81.396027,92.860855,5.85038,349.441,21.3946,-3.98359,22.222,12.5823
1980-09-26 07:18:41,1,0.1,-4.74286,2.38571,0.347586,1,1,36026.4,23213.6,1699,0.93334752,-2.5064812,81.384155,92.860703,5.3009,343.857,17.4325,-6.5666,24.3876,19.5762
1980-09-26 07:20:02,1,0.714286,-4.45714,2.85714,0.178429,1,1,18708.5,18708.5,1699,0.9333418,-2.506609,81.368256,92.860428,5.7466,341.467,17.2384,-6.91151,17.5743,17.5743
1980-09-26 07:21:23,1,1.38571,-3.92857,4.2,0.233867,1,1,33474.0,24553.9,1699,0.93333894,-2.5066719,81.356384,92.860291,4.91115,336.473,11.2311,-17.6676,23.5078,20.1334
1980-09-26 07:25:26,1,0.933333,-4.46667,3.58333,0.359398,1,1,16681.0,17051.8,1699,0.93332756,-2.5069265,81.320648,92.859711,5.94805,340.718,16.0951,-10.44,16.5947,16.7781
1980-09-26 07:26:47,1,0.685714,-4.41429,3.38571,0.263416,1,1,37034.9,24166.0,1699,0.93332469,-2.5069904,81.308807,92.859573,4.84275,343.269,16.4115,-8.84389,24.7265,19.9738
1980-09-26 07:28:08,1,0.316667,-4.3,4.03333,0.337062,1,1,21678.7,20060.7,1699,0.93331897,-2.5071182,81.292908,92.859299,5.3293,344.967,16.6374,-12.6609,18.918,18.1983
1980-09-26 07:29:29,1,1.0,-4.34286,3.45714,0.291373,1,1,35151.1,28870.7,1699,0.93331611,-2.5071812,81.281036,92.859146,5.17709,338.859,15.1229,-8.93604,24.0895,21.8316
1980-09-26 07:30:50,1,1.18333,-4.43333,3.4,0.245515,1,1,17342.2,18635.0,1699,0.93331331,-2.5072451,81.269165,92.859009,5.76685,338.439,16.6183,-8.67506,16.9204,17.5397
1980-09-26 07:32:11,1,1.25714,-4.48571,3.22857,0.29761,1,1,34802.0,26977.3,1699,0.93330759,-2.5073729,81.257172,92.858719,5.06411,336.786,15.1543,-4.8381,23.9696,21.1036
1980-09-26 07:33:32,1,1.25714,-4.62857,2.82857,0.425225,1,1,19781.7,18248.3,1699,0.93330473,-2.5074358,81.2453,92.858582,5.23634,337.534,17.7572,-4.6297,18.0713,17.3568
1980-09-26 07:34:53,1,1.08571,-4.51429,3.0,0.255551,1,1,35945.2,25991.8,1699,0.93330187,-2.5074997,81.233459,92.858444,5.22404,338.569,13.9974,-7.35493,24.36,20.7146
1980-09-26 07:36:14,1,0.742857,-4.42857,2.98571,0.244949,1,1,17632.1,17663.6,1699,0.9332962,-2.5076275,81.217529,92.858154,6.1593,341.656,17.291,-7.30405,17.0612,17.0764
1980-09-26 07:37:35,1,0.585714,-4.57143,3.1,0.330121,1,1,35097.7,23411.9,1699,0.93329334,-2.5076904,81.205688,92.858017,4.79321,342.364,15.828,-8.89193,24.0712,19.6597
1980-09-26 07:38:56,1,0.966667,-4.63333,3.06667,0.316228,1,1,17668.7,17480.2,1699,0.93329048,-2.5077543,81.193817,92.85788,5.73605,341.121,16.9943,-4.92667,17.0789,16.9876
1980-09-26 07:40:17,1,0.571429,-4.05714,3.78571,0.316228,1,1,40711.7,19316.0,1699,0.93328476,-2.5078821,81.181824,92.85759,5.0412,344.397,13.3326,-13.9526,25.9249,17.8573
1980-09-26 07:41:38,1,0.642857,-4.2,3.2,0.315582,1,1,20598.4,20030.1,1699,0.9332819,-2.5079451,81.169952,92.857452,5.7857,342.392,16.5994,-7.5703,18.4406,18.1844
1980-09-26 07:42:59,1,0.842857,-4.34286,3.22857,0.364216,1,1,36517.5,24806.2,1699,0.9332791,-2.508009,81.158112,92.857315,5.29304,340.706,15.8018,-5.08674,24.5532,20.2366
1980-09-26 07:44:20,1,1.27143,-4.5,2.88571,0.27848,1,1,17206.2,18012.5,1699,0.93327338,-2.5081367,81.142181,92.857025,5.83033,337.515,17.5745,-5.76255,16.8539,17.2443
1980-09-26 07:45:41,1,1.62857,-4.1,2.2,0.474234,1,1,34383.5,20398.8,1699,0.93327051,-2.5081997,81.130341,92.856888,4.85987,332.47,16.5414,1.47328,23.825,18.351
1980-09-26 07:47:02,1,0.857143,-4.37143,2.82857,0.294161,1,1,17625.6,18578.4,1699,0.93326479,-2.5083275,81.118317,92.856598,5.82171,339.86,17.4415,-6.5965,17.0581,17.5131
1980-09-26 07:48:23,1,2.13333,-3.91667,3.48333,0.508265,1,1,24778.6,21506.3,1699,0.93326199,-2.5083914,81.106476,92.856461,4.49911,331.076,9.89437,-7.63271,20.2254,18.8426
1980-09-26 07:49:44,1,1.03333,-4.26667,3.23333,0.981495,1,1,18698.5,18620.2,1699,0.93325913,-2.5084543,81.094604,92.856323,5.05606,335.281,17.6678,-1.98272,17.5696,17.5328
1980-09-26 07:51:05,1,0.285714,-4.05714,4.15714,0.548095,1,1,43082.8,19696.6,1699,0.93325341,-2.5085821,81.082611,92.856033,4.86604,343.05,13.0279,-11.9744,26.6692,18.0324
1980-09-26 07:52:26,1,0.366667,-4.1,4.23333,0.459468,1,1,18246.1,18008.0,1699,0.93325055,-2.508646,81.066833,92.855896,6.13345,346.327,16.4913,-13.3995,17.3557,17.2421
1980-09-26 07:53:47,1,0.5,-4.2,3.93333,0.631577,1,1,38703.6,21682.0,1699,0.93324769,-2.508709,81.054993,92.855759,5.34866,341.331,12.5609,-19.497,25.2775,18.9194
1980-09-26 07:55:08,1,-0.514286,-4.07143,4.17143,0.663017,1,1,27920.4,22298.8,1699,0.93324202,-2.5088367,81.042969,92.855469,5.02683,352.803,15.7596,-9.65508,21.4694,19.1866
1980-09-26 07:56:29,1,-0.357143,-3.32857,5.4,0.344638,1,1,28118.1,17944.5,1699,0.93323916,-2.5089006,81.031128,92.855331,5.32325,343.751,4.16524,-22.3651,21.5452,17.2117
1980-09-26 07:57:50,1,-0.828571,-2.72857,5.62857,0.654965,1,1,20480.8,11362.1,1699,0.9332363,-2.5089636,81.019257,92.855179,7.48313,346.215,11.8349,-23.128,18.3879,13.6958
1980-09-26 07:59:11,1,-1.05714,-2.32857,5.77143,0.837148,1,1,28532.2,18750.1,1699,0.93323058,-2.5090914,81.007263,92.854904,5.86682,347.393,3.39514,-23.1887,21.7033,17.5938
1980-09-26 08:00:32,1,-1.11429,-2.55714,5.64286,1.08647,1,1,18815.6,10343.6,1699,0.93322778,-2.5091553,80.991486,92.854767,8.16471,347.204,12.3858,-23.0518,17.6245,13.0675
1980-09-26 08:03:21,1,2.975,-3.525,3.8,0.297909,1,1,26498.3,30322.6,1699,0.93321919,-2.509346,80.967621,92.85434,4.55242,334.58,28.2198,-39.7299,20.9154,22.3739
1980-09-26 08:04:42,-1,nan,nan,nan,nan,1,3,nan,nan,1699,0.93321633,-2.5094099,80.95575,92.854187,nan,328.319,6.96859,-15.7453,nan,nan
1980-09-26 08:06:03,1,2.17143,-3.48571,4.6,0.283563,1,1,25830.1,22321.7,1699,0.93321061,-2.5095367,80.93985,92.853912,4.72928,329.336,12.3351,-15.4387,20.65,19.1965
1980-09-26 08:07:24,1,1.9,-3.51667,4.93333,0.424591,1,1,27043.7,19452.1,1699,0.93320775,-2.5096006,80.928009,92.853775,5.50327,327.768,5.25157,-17.1804,21.1296,17.9201
1980-09-26 08:08:38,1,1.58333,-3.43333,5.0,0.294863,1,1,18907.0,16554.8,1699,0.93320489,-2.5096645,80.916138,92.853622,5.18774,335.766,13.761,-18.1306,17.6673,16.5318
1980-09-26 08:09:59,1,1.25714,-3.32857,5.4,0.290671,1,1,25630.0,16753.4,1699,0.93320203,-2.5097275,80.904266,92.853485,5.65907,334.958,5.15914,-17.6543,20.5699,16.6306
1980-09-26 08:11:20,1,1.76667,-2.98333,5.4,0.245515,1,1,23057.6,18821.2,1699,0.93319631,-2.5098553,80.892273,92.85321,5.14735,330.721,10.0318,-19.8948,19.5104,17.6271
1980-09-26 08:12:41,1,1.9,-2.91667,5.4,0.33375,1,1,21339.9,18786.8,1699,0.9331935,-2.5099192,80.880402,92.853058,5.34524,329.561,3.98235,-19.6534,18.7696,17.611
1980-09-26 08:14:02,1,1.9,-3.05,5.2,0.33541,1,1,22563.6,21385.3,1699,0.93318778,-2.510046,80.868408,92.852783,4.99957,329.067,10.3046,-18.8233,19.3002,18.7895